Regional Weather Roundup
Issued by NWS Glasgow, MT

Home | Current Version | Previous Version | Text Only | Print | Product List | Glossary On
Versions: 1 2 3 4 5 6 7 8 9 10 11 12 13 14 15 16 17 18 19 20 21 22 23 24 25 26 27 28 29 30 31 32 33 34 35 36 37 38 39 40 41 42 43 44 45 46 47 48 49 50
000
ASUS45 KGGW 170815
RWRGGW
HOURLY WEATHER ROUNDUP FOR NORTHEAST MONTANA
NATIONAL WEATHER SERVICE GLASGOW MONTANA
200 AM MDT WED SEP 17 2014

NOTE: "FAIR" INDICATES FEW OR NO CLOUDS BELOW 12,000 FEET WITH NO
SIGNIFICANT WEATHER AND/OR OBSTRUCTIONS TO VISISBILITY.

NORTHEAST MONTANA


CITY           SKY/WX    TMP DP  RH WIND       PRES   REMARKS
GLASGOW        PTCLDY    54  39  57 E10       29.89F
PLENTYWOOD       N/A     52  34  50 SE2         N/A
WOLF POINT     PTCLDY    47  38  71 CALM      29.92R
JORDAN           N/A     48  45  89 CALM      29.91S
WINNETT          N/A     48  46  93 CALM        N/A
SIDNEY         CLEAR     43  37  81 CALM      29.95S
GLENDIVE       NOT AVBL
MALTA            N/A     52  49  89 E1          N/A
SCOBEY           N/A     44  34  67 CALM      29.92S

FORT PECK REPORTS


CITY           SKY/WX    TMP DP  RH WIND       PRES   REMARKS
FORT PECK        N/A     59  47  64 SE5         N/A
THE PINES        N/A     61  44  53 CALM        N/A

SOUTHEAST MONTANA


CITY           SKY/WX    TMP DP  RH WIND       PRES   REMARKS
BILLINGS       PTCLDY    63  42  46 SW14      29.95S
MILES CITY     PTCLDY    54  45  71 NE5       29.91S
BAKER          PTCLDY    47  44  90 E5        29.95F
LIVINGSTON     RAIN      62  49  62 W23G29    30.04R

CENTRAL MONTANA


CITY           SKY/WX    TMP DP  RH WIND       PRES   REMARKS
HAVRE          MOCLDY    55  50  83 E5        29.86F
LEWISTOWN      MOCLDY    56  43  61 SE6       29.95F
GREAT FALLS    CLOUDY    56  43  61 W7        29.92S
CUT BANK       CLOUDY    58  43  57 CALM      29.92F
HELENA         PTCLDY    57  51  80 NW3       29.97R
BUTTE          PTCLDY    45  39  79 SE3       30.08S
BOZEMAN        PTCLDY    54  47  77 SE7       30.02S

WESTERN MONTANA


CITY           SKY/WX    TMP DP  RH WIND       PRES   REMARKS
MISSOULA       PTCLDY    53  43  68 SE3       29.94S
KALISPELL      NOT AVBL

NORTH DAKOTA


CITY           SKY/WX    TMP DP  RH WIND       PRES   REMARKS
WILLISTON      CLEAR     42  37  82 CALM      29.93S
DICKINSON      PTCLDY    44  39  82 CALM      29.93S
MINOT          CLEAR     48  42  80 SW8       29.91S
BISMARCK       CLEAR     43  42  97 CALM      29.94S

SOUTHERN SASKATCHEWAN


CITY           SKY/WX    TMP DP  RH WIND       PRES   REMARKS
REGINA         CLEAR     48  41  76 E9        29.92S
ESTEVAN        CLEAR     46  39  76 S5        29.93R
SWIFT CURRENT  CLEAR     54  41  62 SE7       29.90S




USA.gov is the U.S. government's official web portal to all federal, state and local government web resources and services.